Stations météo

réclame
Mon MeteoGroup
Camborne, Grande-Bretagne (3808): Température de l'air & dewpoint: 08.08.2020 21:00:00 - 14.08.2020 21:00:00 (BST)Camborne, Grande-Bretagne (3808): Température de l'air -20cm & Température de l'air -100cm: 08.08.2020 21:00:00 - 14.08.2020 21:00:00 (BST)Camborne, Grande-Bretagne (3808): Vitesse du vent: 08.08.2020 21:00:00 - 14.08.2020 21:00:00 (BST)Camborne, Grande-Bretagne (3808): Direction du vent: 08.08.2020 21:00:00 - 14.08.2020 21:00:00 (BST)Camborne, Grande-Bretagne (3808): reduced air pressure: 08.08.2020 21:00:00 - 14.08.2020 21:00:00 (BST)Camborne, Grande-Bretagne (3808): visibility: 08.08.2020 21:00:00 - 14.08.2020 21:00:00 (BST)Camborne, Grande-Bretagne (3808): Ensoleillement: 08.08.2020 21:00:00 - 14.08.2020 21:00:00 (BST)Camborne, Grande-Bretagne (3808): Quantités de précipitations: 08.08.2020 21:00:00 - 14.08.2020 21:00:00 (BST)
Date & Time tt [°C] td [°C] tt -20cm [°C] tt -100cm [°C] ff [km/h] ff [knt] dd ppp [hPa] vv [km] sd [min] rr [mm]
14.08.2020 21:00:00 17,0 16,7 - - 11 6 W 1016,0 3,8 0 0,0
14.08.2020 20:00:00 17,0 16,9 - - 13 7 W 1015,6 0,8 0 0,0
14.08.2020 19:00:00 17,3 17,2 - - 13 7 W 1015,4 0,5 0 0,0
14.08.2020 18:00:00 17,6 17,4 - - 15 8 W 1015,4 0,8 0 1,6
14.08.2020 17:00:00 18,0 17,4 - - 11 6 W 1015,2 2,5 0 0,4
14.08.2020 16:00:00 19,0 17,1 - - 13 7 W 1015,2 12 0 0,0
14.08.2020 15:00:00 18,9 17,3 - - 13 7 W 1015,3 10 0 0,0
14.08.2020 14:00:00 18,1 17,0 - - 13 7 WNW 1015,5 8 0 0,0
14.08.2020 13:00:00 18,1 17,1 - - 11 6 W 1015,4 6 0 0,0
14.08.2020 12:00:00 17,5 16,8 - - 9 5 W 1015,2 6 0 0,0
14.08.2020 11:00:00 17,0 16,7 - - 13 7 W 1015,0 5 0 0,0
14.08.2020 10:00:00 17,3 17,2 19,2 17,7 11 6 W 1014,6 5 0 0,0
14.08.2020 09:00:00 17,2 17,2 - - 8 4 WNW 1014,3 1,5 0 0,0
14.08.2020 08:00:00 16,7 16,7 - - 9 5 WNW 1014,0 0,1 0 0,0
14.08.2020 07:00:00 16,9 16,9 - - 2 1 WNW 1014,1 0,2 0 0,0
14.08.2020 06:00:00 16,8 16,8 - - 8 4 WNW 1013,7 - 0 0,0
14.08.2020 05:00:00 17,0 17,0 - - 8 4 W 1013,5 - 0 0,0
14.08.2020 04:00:00 17,0 17,0 - - 9 5 W 1013,6 0,1 0 0,2
14.08.2020 03:00:00 16,9 16,9 - - 8 4 W 1013,8 0,1 0 0,0
14.08.2020 02:00:00 16,9 16,9 - - 8 4 WNW 1013,9 0,1 0 0,0
14.08.2020 01:00:00 17,2 17,1 - - 5 3 WNW 1013,8 0,1 - 0,0
14.08.2020 00:00:00 17,1 17,0 - - 8 4 NNW 1014,0 0,4 0 0,0
13.08.2020 23:00:00 17,3 17,2 - - 5 3 N 1014,1 2,4 0 0,0
13.08.2020 22:00:00 17,3 17,0 - - 9 5 NW 1013,7 2,8 0 0,0
13.08.2020 21:00:00 17,7 17,2 - - 8 4 WNW 1013,3 2,8 0 0,0
13.08.2020 20:00:00 17,9 17,2 - - 9 5 W 1013,3 1,2 0 0,0
13.08.2020 19:00:00 19,2 18,1 - - 9 5 NNW 1013,0 4,0 0 0,0
13.08.2020 18:00:00 20,4 18,7 - - 13 7 N 1012,9 6 36 0,0
13.08.2020 17:00:00 21,4 18,8 - - 9 5 N 1012,5 8 18 0,0
13.08.2020 16:00:00 21,8 19,0 - - 11 6 NW 1012,3 12 6 0,0
13.08.2020 15:00:00 22,2 19,2 - - 5 3 NNW 1012,3 8 18 0,0
13.08.2020 14:00:00 21,3 19,0 - - 8 4 NW 1012,8 6 18 0,0
13.08.2020 13:00:00 21,3 19,3 - - 4 2 W 1012,6 6 6 0,0
13.08.2020 12:00:00 20,4 18,9 - - 8 4 NNW 1012,4 5 0 0,0
13.08.2020 11:00:00 19,7 18,6 - - 8 4 WNW 1012,2 5 0 0,0
13.08.2020 10:00:00 19,2 18,3 18,7 17,7 4 2 WNW 1011,9 4,5 6 0,0
13.08.2020 09:00:00 18,3 18,0 - - 5 3 NW 1011,9 3,5 0 1,0
13.08.2020 08:00:00 17,8 17,5 - - 11 6 S 1011,4 3,5 0 1,8
13.08.2020 07:00:00 17,6 17,4 - - 11 6 S 1011,0 3,0 0 0,6
13.08.2020 06:00:00 17,6 17,5 - - 5 3 SE 1011,2 2,7 0 0,0
13.08.2020 05:00:00 17,6 17,4 - - 9 5 E 1010,9 1,5 0 0,0
13.08.2020 04:00:00 17,8 17,6 - - 8 4 E 1011,1 3,0 0 0,0
13.08.2020 03:00:00 17,3 17,2 - - 5 3 NNE 1011,3 0,3 0 0,0
13.08.2020 02:00:00 18,1 17,8 - - 4 2 SSW 1011,3 1,0 0 0,0
13.08.2020 01:00:00 18,8 18,2 - - 5 3 ENE 1011,5 2,0 - 0,0
13.08.2020 00:00:00 18,7 17,9 - - 5 3 S 1011,3 3,0 0 0,0
12.08.2020 23:00:00 17,9 17,5 - - 2 1 NNE 1011,8 3,0 0 0,0
12.08.2020 22:00:00 17,6 17,3 - - 5 3 NE 1012,0 3,0 0 0,0
12.08.2020 21:00:00 18,5 17,8 - - 4 2 NNW 1011,8 4,0 0 0,0
12.08.2020 20:00:00 18,5 17,8 - - 5 3 NNE 1011,3 6 6 0,0
12.08.2020 19:00:00 17,8 17,6 - - 9 5 N 1011,2 0,6 0 0,0
12.08.2020 18:00:00 17,2 17,1 - - 8 4 N 1011,9 0,2 0 0,0
12.08.2020 17:00:00 18,3 17,4 - - 8 4 NNW 1012,2 7 0 0,0
12.08.2020 16:00:00 18,1 17,8 - - 5 3 NNW 1012,4 11 0 0,0
12.08.2020 15:00:00 17,4 17,3 - - 5 3 NNW 1012,6 3,0 0 0,0
12.08.2020 14:00:00 17,4 17,4 - - 8 4 NNW 1012,8 3,9 0 0,0
12.08.2020 13:00:00 17,0 17,0 - - 5 3 N 1013,2 0,3 0 0,2
12.08.2020 12:00:00 17,0 17,0 - - 8 4 N 1013,3 0,1 0 0,0
12.08.2020 11:00:00 17,1 17,1 - - 9 5 N 1013,3 0,1 0 0,0
12.08.2020 10:00:00 16,9 16,9 18,7 17,7 13 7 N 1013,2 0,2 0 0,0
12.08.2020 09:00:00 16,7 16,7 - - 13 7 N 1013,1 - 0 0,0
12.08.2020 08:00:00 16,5 16,5 - - 9 5 N 1013,0 - 0 0,0
12.08.2020 07:00:00 16,4 16,4 - - 13 7 N 1013,4 - 0 0,0
12.08.2020 06:00:00 16,2 16,2 - - 13 7 N 1013,2 - 0 0,2
12.08.2020 05:00:00 16,1 16,1 - - 15 8 N 1013,5 - 0 0,0
12.08.2020 04:00:00 15,9 15,9 - - 13 7 N 1014,0 0,1 0 0,0
12.08.2020 03:00:00 15,8 15,8 - - 13 7 NNW 1014,2 0,1 0 0,0
12.08.2020 02:00:00 16,0 16,0 - - 13 7 N 1014,3 - 0 0,2
12.08.2020 01:00:00 16,0 16,0 - - 9 5 N 1014,7 - - 0,0
12.08.2020 00:00:00 16,1 16,1 - - 9 5 N 1014,9 - 0 0,0
11.08.2020 23:00:00 16,0 16,0 - - 9 5 N 1015,3 - 0 0,0
11.08.2020 22:00:00 16,0 16,0 - - 9 5 N 1015,4 0,1 0 0,0
11.08.2020 21:00:00 16,1 16,1 - - 11 6 N 1015,3 0,1 0 0,0
11.08.2020 20:00:00 16,2 16,1 - - 13 7 N 1015,2 0,1 0 0,0
11.08.2020 19:00:00 16,4 16,4 - - 11 6 N 1014,9 0,1 0 0,0
11.08.2020 18:00:00 16,7 16,4 - - 13 7 N 1015,2 0,5 0 0,0
11.08.2020 17:00:00 16,6 16,3 - - 15 8 N 1015,4 0,6 0 0,0
11.08.2020 16:00:00 16,5 16,3 - - 13 7 N 1015,8 0,5 0 0,0
11.08.2020 15:00:00 16,8 16,4 - - 13 7 NNW 1016,0 3,1 0 0,0
11.08.2020 14:00:00 16,8 16,6 - - 13 7 NNW 1016,0 0,8 0 0,0
11.08.2020 13:00:00 16,8 16,8 - - 11 6 NNW 1016,2 0,2 0 0,0
11.08.2020 12:00:00 16,8 16,8 - - 8 4 N 1016,0 0,3 0 0,0
11.08.2020 11:00:00 16,4 16,4 - - 8 4 N 1015,9 0,1 0 0,0
11.08.2020 10:00:00 16,3 16,2 18,7 17,7 5 3 N 1016,0 0,1 0 0,0
11.08.2020 09:00:00 15,9 15,9 - - 8 4 N 1016,0 - 0 0,0
11.08.2020 08:00:00 15,8 15,8 - - 9 5 N 1015,7 0,1 0 0,0
11.08.2020 07:00:00 15,5 15,5 - - 9 5 N 1015,8 - 0 0,0
11.08.2020 06:00:00 15,7 15,7 - - 9 5 N 1015,6 - 0 0,0
11.08.2020 05:00:00 15,7 15,6 - - 13 7 N 1015,5 0,1 0 0,0
11.08.2020 04:00:00 15,6 15,6 - - 11 6 N 1015,8 0,1 0 0,0
11.08.2020 03:00:00 15,7 15,7 - - 11 6 N 1015,9 0,1 0 0,0
11.08.2020 02:00:00 15,7 15,6 - - 13 7 N 1016,0 0,4 0 0,0
11.08.2020 01:00:00 16,0 15,6 - - 9 5 N 1016,2 2,8 - 0,0
11.08.2020 00:00:00 16,1 15,7 - - 11 6 N 1016,6 4,2 0 0,0
10.08.2020 23:00:00 16,2 15,7 - - 11 6 N 1016,6 4,2 0 0,0
10.08.2020 22:00:00 16,5 15,8 - - 15 8 N 1016,4 6 0 0,0
10.08.2020 21:00:00 16,6 15,9 - - 13 7 N 1016,0 7 0 0,0
10.08.2020 20:00:00 17,1 16,3 - - 13 7 N 1016,0 7 0 0,0
10.08.2020 19:00:00 17,5 16,3 - - 13 7 N 1015,6 9 0 0,0
10.08.2020 18:00:00 18,0 16,6 - - 15 8 N 1015,3 9 6 0,0
10.08.2020 17:00:00 18,4 16,4 - - 16 9 N 1015,6 8 24 0,0
10.08.2020 16:00:00 18,4 16,4 - - 21 11 N 1015,7 12 24 0,0
10.08.2020 15:00:00 19,0 16,5 - - 18 10 NNW 1015,6 13 54 0,0
10.08.2020 14:00:00 18,8 16,5 - - 21 11 N 1015,6 10 0 0,0
10.08.2020 13:00:00 18,5 16,5 - - 18 10 N 1015,8 11 0 0,0
10.08.2020 12:00:00 18,2 16,3 - - 22 12 N 1015,8 10 54 0,0
10.08.2020 11:00:00 18,1 16,3 - - 22 12 N 1015,4 10 54 0,0
10.08.2020 10:00:00 17,9 16,2 18,5 17,7 18 10 NNW 1015,8 13 36 0,0
10.08.2020 09:00:00 17,1 15,8 - - 15 8 NNW 1015,9 14 12 0,0
10.08.2020 08:00:00 16,4 15,7 - - 9 5 N 1015,9 11 0 0,2
10.08.2020 07:00:00 16,1 15,6 - - 11 6 NNW 1015,8 8 0 0,0
10.08.2020 06:00:00 16,0 15,4 - - 11 6 N 1015,6 9 0 0,0
10.08.2020 05:00:00 15,9 15,5 - - 16 9 N 1015,9 6 0 0,0
10.08.2020 04:00:00 16,0 15,6 - - 9 5 N 1016,7 7 0 0,6
10.08.2020 03:00:00 15,9 15,2 - - 15 8 N 1016,8 14 0 0,0
10.08.2020 02:00:00 15,8 15,3 - - 11 6 N 1017,4 12 0 0,0
10.08.2020 01:00:00 16,0 15,7 - - 13 7 N 1017,3 8 - 0,0
10.08.2020 00:00:00 15,7 15,2 - - 15 8 N 1017,5 8 0 0,0
09.08.2020 23:00:00 15,4 14,7 - - 11 6 N 1017,9 17 0 0,0
09.08.2020 22:00:00 15,5 14,9 - - 13 7 N 1018,1 17 0 0,0
09.08.2020 21:00:00 15,9 14,9 - - 13 7 N 1018,1 19 0 0,0
09.08.2020 20:00:00 16,6 15,9 - - 16 9 N 1018,1 7 0 0,0
09.08.2020 19:00:00 16,9 16,1 - - 16 9 N 1018,1 4,8 0 0,0
09.08.2020 18:00:00 17,4 16,3 - - 21 11 N 1018,1 5 0 0,0
09.08.2020 17:00:00 18,2 16,5 - - 18 10 N 1018,7 8 6 0,0
09.08.2020 16:00:00 17,8 16,3 - - 21 11 N 1019,0 10 0 0,0
09.08.2020 15:00:00 18,0 16,1 - - 16 9 N 1019,2 17 30 0,0
09.08.2020 14:00:00 18,5 15,5 - - 16 9 NNW 1019,2 35 60 0,0
09.08.2020 13:00:00 18,6 14,7 - - 16 9 NNW 1019,4 40 60 0,0
09.08.2020 12:00:00 18,0 14,2 - - 16 9 N 1019,5 40 60 0,0
09.08.2020 11:00:00 17,7 14,2 - - 15 8 N 1020,0 35 60 0,0
09.08.2020 10:00:00 17,6 14,6 18,4 17,7 16 9 N 1020,0 35 60 0,0
09.08.2020 09:00:00 16,4 14,1 - - 18 10 N 1020,0 27 42 0,0
09.08.2020 08:00:00 16,1 14,3 - - 21 11 N 1019,9 24 18 0,0
09.08.2020 07:00:00 15,3 14,1 - - 16 9 N 1020,2 21 0 0,0
09.08.2020 06:00:00 15,0 13,6 - - 16 9 N 1020,1 20 0 0,0
09.08.2020 05:00:00 15,0 13,6 - - 16 9 N 1020,3 23 0 0,0
09.08.2020 04:00:00 14,8 13,6 - - 15 8 N 1020,5 22 0 0,0
09.08.2020 03:00:00 14,9 13,6 - - 16 9 N 1020,6 23 0 0,0
09.08.2020 02:00:00 14,7 13,6 - - 15 8 NNW 1021,0 23 0 0,0
09.08.2020 01:00:00 14,7 13,9 - - 16 9 NNW 1021,1 18 - 0,0
09.08.2020 00:00:00 14,8 14,1 - - 15 8 N 1021,1 16 0 0,0
08.08.2020 23:00:00 14,7 14,2 - - 16 9 NNW 1021,4 12 0 0,0
08.08.2020 22:00:00 14,7 14,3 - - 15 8 NNW 1021,5 10 0 0,0
08.08.2020 21:00:00 15,3 14,6 - - 13 7 N 1021,4 14 18 0,0

tt = Température de l'air
td = dewpoint
tt -20cm = Température de l'air -20cm
tt -100cm = Température de l'air -100cm
ff = Vitesse du vent
dd = Direction du vent
ppp = reduced air pressure
vv = visibility
sd = Ensoleillement
rr = Quantités de précipitations

stations d'obs. à proximité